| time (UTC) | temp C | wind direction | speed KPH | gust KPH | rain 1hr cm | rain 24hr cm | rain mn cm | humidity % | barometer mb |
| 20260505041538 | 17 | 311 | 19.3 | 25.7 | 0.00 | 0.00 | 0.00 | 65 | 1004.4 |
| 20260505040040 | 18 | 310 | 19.3 | 27.4 | 0.00 | 0.00 | 0.00 | 61 | 1003.5 |
| 20260505034537 | 18 | 303 | 14.5 | 27.4 | 0.00 | 0.00 | 0.00 | 60 | 1003.5 |
| 20260505033049 | 19 | 244 | 11.3 | 17.7 | 0.00 | 0.00 | 0.00 | 57 | 1002.5 |
| 20260505031540 | 19 | 236 | 8.0 | 20.9 | 0.00 | 0.00 | 0.00 | 56 | 1002.6 |
| 20260505030039 | 20 | 195 | 9.7 | 19.3 | 0.00 | 0.00 | 0.00 | 55 | 1002.5 |
| 20260505024602 | 20 | 196 | 14.5 | 22.5 | 0.00 | 0.00 | 0.00 | 54 | 1002.5 |
| 20260505023040 | 20 | 229 | 11.3 | 19.3 | 0.00 | 0.00 | 0.00 | 55 | 1002.7 |
| 20260505021601 | 20 | 205 | 11.3 | 17.7 | 0.00 | 0.00 | 0.00 | 54 | 1002.7 |
| 20260505020047 | 20 | 216 | 11.3 | 20.9 | 0.00 | 0.00 | 0.00 | 52 | 1002.7 |
| 20260505014540 | 20 | 195 | 11.3 | 17.7 | 0.00 | 0.00 | 0.00 | 51 | 1002.4 |
| 20260505013038 | 21 | 193 | 12.9 | 19.3 | 0.00 | 0.00 | 0.00 | 50 | 1002.2 |
| 20260505011548 | 21 | 200 | 11.3 | 20.9 | 0.00 | 0.00 | 0.00 | 49 | 1002.2 |
| 20260505010039 | 21 | 234 | 9.7 | 20.9 | 0.00 | 0.00 | 0.00 | 49 | 1002.1 |
| 20260505004545 | 21 | 226 | 14.5 | 20.9 | 0.00 | 0.00 | 0.00 | 47 | 1002.1 |
| 20260505003039 | 22 | 206 | 12.9 | 22.5 | 0.00 | 0.00 | 0.00 | 47 | 1002.1 |
| 20260505001538 | 22 | 254 | 12.9 | 24.1 | 0.00 | 0.00 | 0.00 | 47 | 1002.1 |
| 20260505000040 | 22 | 174 | 20.9 | 30.6 | 0.00 | 0.00 | 0.00 | 46 | 1001.7 |
| 20260504234537 | 23 | 226 | 12.9 | 37.0 | 0.00 | 0.00 | 0.00 | 50 | 1001.7 |
| 20260504233055 | 22 | 235 | 16.1 | 35.4 | 0.00 | 0.00 | 0.00 | 51 | 1002.1 |
| 20260504231541 | 22 | 243 | 17.7 | 33.8 | 0.00 | 0.00 | 0.00 | 53 | 1002.3 |
| 20260504230043 | 22 | 228 | 17.7 | 32.2 | 0.00 | 0.00 | 0.00 | 55 | 1002.6 |
| 20260504224538 | 22 | 233 | 14.5 | 29.0 | 0.00 | 0.00 | 0.00 | 58 | 1002.8 |
| 20260504223040 | 22 | 201 | 19.3 | 35.4 | 0.00 | 0.00 | 0.00 | 55 | 1003.0 |
| 20260504221547 | 22 | 219 | 14.5 | 27.4 | 0.00 | 0.00 | 0.00 | 56 | 1003.1 |
| 20260504214542 | 23 | 249 | 22.5 | 38.6 | 0.00 | 0.00 | 0.00 | 48 | 1003.3 |
| 20260504213038 | 22 | 237 | 16.1 | 32.2 | 0.00 | 0.00 | 0.00 | 50 | 1003.5 |
| 20260504211537 | 22 | 207 | 16.1 | 49.9 | 0.00 | 0.00 | 0.00 | 47 | 1003.5 |
| 20260504210044 | 23 | 245 | 22.5 | 40.2 | 0.00 | 0.00 | 0.00 | 45 | 1003.4 |
| 20260504204557 | 23 | 242 | 25.7 | 38.6 | 0.00 | 0.00 | 0.00 | 41 | 1003.3 |
| 20260504203042 | 23 | 228 | 22.5 | 43.5 | 0.00 | 0.00 | 0.00 | 45 | 1003.2 |
| 20260504201539 | 24 | 241 | 19.3 | 37.0 | 0.00 | 0.00 | 0.00 | 45 | 1003.4 |
| 20260504200043 | 23 | 198 | 20.9 | 35.4 | 0.00 | 0.00 | 0.00 | 44 | 1003.4 |
| 20260504194541 | 23 | 223 | 20.9 | 35.4 | 0.00 | 0.41 | 0.00 | 44 | 1003.6 |
| 20260504193042 | 23 | 257 | 22.5 | 32.2 | 0.00 | 0.41 | 0.00 | 45 | 1003.9 |
| 20260504191541 | 23 | 269 | 19.3 | 53.1 | 0.00 | 0.41 | 0.00 | 44 | 1003.7 |
| 20260504190040 | 24 | 210 | 20.9 | 45.1 | 0.00 | 0.41 | 0.00 | 45 | 1003.9 |
| 20260504184539 | 23 | 271 | 20.9 | 46.7 | 0.00 | 0.41 | 0.00 | 46 | 1003.8 |
| 20260504183038 | 23 | 239 | 19.3 | 37.0 | 0.00 | 0.41 | 0.00 | 46 | 1003.9 |
| 20260504181542 | 23 | 225 | 19.3 | 35.4 | 0.00 | 0.41 | 0.00 | 47 | 1003.9 |
| 20260504180041 | 23 | 211 | 17.7 | 38.6 | 0.00 | 0.41 | 0.00 | 49 | 1004.0 |
| 20260504174540 | 23 | 232 | 24.1 | 35.4 | 0.00 | 0.41 | 0.00 | 48 | 1003.9 |
| 20260504173039 | 22 | 200 | 27.4 | 40.2 | 0.00 | 0.41 | 0.00 | 50 | 1003.9 |
| 20260504171539 | 22 | 210 | 25.7 | 43.5 | 0.00 | 0.41 | 0.00 | 50 | 1004.1 |
| 20260504081546 | 10 | 190 | 9.7 | 16.1 | 0.00 | 0.41 | 0.00 | 73 | 1007.3 |
| 20260504044538 | 11 | 204 | 6.4 | 16.1 | 0.00 | 0.41 | 0.00 | 70 | 1009.0 |
| 20260504043042 | 11 | 210 | 8.0 | 16.1 | 0.00 | 0.41 | 0.00 | 71 | 1009.2 |